Location: El Atico
(3.0014°N, 75.4378°W)
Time: 11:52:16
(UTC+00:00)

Delta 168 - Pass Details

Date: 09 December 2025
Orbit: 391 x 1873 km, 25.3° (Epoch: 25 January)

Event Time Altitude Azimuth Distance (km) Brightness Sun altitude
Rises 23:41:26 0° 308° (NW) 2,602 6.7 -12.0°
Reaches altitude 10° 23:43:24 10° 315° (NW) 1,851 5.8 -12.4°
Maximum altitude 23:47:31 47° 30° (NNE) 926 3.6 -13.4°
Enters shadow 23:52:16 15° 99° (E) 2,236 5.4 -14.5°
